Time,TemperatureF,DewpointF,PressureIn,WindDirection,WindDirectionDegrees,WindSpeedMPH,WindSpeedGustMPH,Humidity,HourlyPrecipIn,Conditions,Clouds,dailyrainin,SoftwareType,DateUTC
2013-08-03 00:01:00,69.8,62.6,28.97,SSE,158,0.0,0.0,78,0.00,,---,0.00,VWS V14.01,2013-08-03 04:01:00,
2013-08-03 00:06:00,69.8,62.6,28.97,SSE,158,0.0,0.0,78,0.00,,---,0.00,VWS V14.01,2013-08-03 04:06:00,
2013-08-03 00:11:00,69.6,62.8,28.97,SSE,158,0.0,0.0,79,0.00,,---,0.00,VWS V14.01,2013-08-03 04:11:00,
2013-08-03 00:16:00,69.6,62.8,28.97,SSE,158,0.0,0.0,79,0.00,,---,0.00,VWS V14.01,2013-08-03 04:16:00,
2013-08-03 00:21:00,69.6,62.8,28.97,SSE,158,0.0,0.0,79,0.00,,---,0.00,VWS V14.01,2013-08-03 04:21:00,
2013-08-03 00:26:00,69.4,63.0,28.94,SSE,158,0.0,0.0,80,0.00,,---,0.00,VWS V14.01,2013-08-03 04:26:00,
2013-08-03 00:31:00,69.4,63.0,28.94,SSE,158,0.0,0.0,80,0.00,,---,0.00,VWS V14.01,2013-08-03 04:31:00,
2013-08-03 00:37:00,69.4,63.0,28.94,SSE,158,0.0,0.0,80,0.00,,---,0.00,VWS V14.01,2013-08-03 04:37:00,
2013-08-03 00:42:00,69.4,63.0,28.94,SSE,158,0.0,0.0,80,0.00,,---,0.00,VWS V14.01,2013-08-03 04:42:00,
2013-08-03 00:47:00,69.3,62.8,28.94,SSE,158,0.0,0.0,80,0.00,,---,0.00,VWS V14.01,2013-08-03 04:47:00,
2013-08-03 00:52:00,69.3,63.2,28.97,SSE,158,0.0,0.0,81,0.00,,---,0.00,VWS V14.01,2013-08-03 04:52:00,
2013-08-03 00:57:00,69.3,63.2,28.97,SSE,158,0.0,0.0,81,0.00,,---,0.00,VWS V14.01,2013-08-03 04:57:00,
2013-08-03 01:02:00,69.1,63.0,28.97,SSE,158,0.0,0.0,81,0.00,,---,0.00,VWS V14.01,2013-08-03 05:02:00,
2013-08-03 01:07:00,69.1,63.0,28.97,SSE,158,0.0,0.0,81,0.00,,---,0.00,VWS V14.01,2013-08-03 05:07:00,
2013-08-03 01:12:00,69.1,63.4,28.97,SSE,158,0.0,0.0,82,0.00,,---,0.00,VWS V14.01,2013-08-03 05:12:00,
2013-08-03 01:17:00,69.1,63.4,28.97,SSE,158,0.0,0.0,82,0.00,,---,0.00,VWS V14.01,2013-08-03 05:17:00,
2013-08-03 01:22:00,68.9,63.2,28.97,SSE,158,0.0,0.0,82,0.00,,---,0.00,VWS V14.01,2013-08-03 05:22:00,
2013-08-03 01:27:00,68.9,63.2,28.97,SSE,158,0.0,0.0,82,0.00,,---,0.00,VWS V14.01,2013-08-03 05:27:00,
2013-08-03 01:32:00,68.7,63.3,28.97,SSE,158,0.0,0.0,83,0.00,,---,0.00,VWS V14.01,2013-08-03 05:32:00,
2013-08-03 01:37:00,68.7,63.3,28.97,SSE,158,0.0,0.0,83,0.00,,---,0.00,VWS V14.01,2013-08-03 05:37:00,
2013-08-03 01:42:00,68.7,63.3,28.97,SSE,158,0.0,0.0,83,0.00,,---,0.00,VWS V14.01,2013-08-03 05:42:00,
2013-08-03 01:47:00,68.5,63.2,28.97,SSE,158,0.0,0.0,83,0.00,,---,0.00,VWS V14.01,2013-08-03 05:47:00,
2013-08-03 01:52:00,68.5,63.2,28.94,SSE,158,0.0,0.0,83,0.00,,---,0.00,VWS V14.01,2013-08-03 05:52:00,
2013-08-03 01:57:00,68.5,63.5,28.94,SSE,158,0.0,0.0,84,0.00,,---,0.00,VWS V14.01,2013-08-03 05:57:00,
2013-08-03 02:02:00,68.5,63.5,28.94,SSE,158,0.0,0.0,84,0.00,,---,0.00,VWS V14.01,2013-08-03 06:02:00,
2013-08-03 02:07:00,68.4,63.3,28.94,SSE,158,0.0,0.0,84,0.00,,---,0.00,VWS V14.01,2013-08-03 06:07:00,
2013-08-03 02:12:00,68.4,63.3,28.94,SSE,158,0.0,0.0,84,0.00,,---,0.00,VWS V14.01,2013-08-03 06:12:00,
2013-08-03 02:17:00,68.2,63.2,28.94,SSE,158,0.0,0.0,84,0.00,,---,0.00,VWS V14.01,2013-08-03 06:17:00,
2013-08-03 02:22:00,68.2,63.5,28.91,SSE,158,0.0,0.0,85,0.00,,---,0.00,VWS V14.01,2013-08-03 06:22:00,
2013-08-03 02:27:00,68.2,63.5,28.91,SSE,158,0.0,0.0,85,0.00,,---,0.00,VWS V14.01,2013-08-03 06:27:00,
2013-08-03 02:32:00,68.2,63.5,28.91,SSE,158,0.0,0.0,85,0.00,,---,0.00,VWS V14.01,2013-08-03 06:32:00,
2013-08-03 02:37:00,68.2,63.5,28.94,SSE,158,0.0,0.0,85,0.00,,---,0.00,VWS V14.01,2013-08-03 06:37:00,
2013-08-03 02:42:00,68.2,63.8,28.94,SSE,158,0.0,0.0,86,0.00,,---,0.00,VWS V14.01,2013-08-03 06:42:00,
2013-08-03 02:47:00,68.0,63.7,28.94,SSE,158,0.0,0.0,86,0.00,,---,0.00,VWS V14.01,2013-08-03 06:47:00,
2013-08-03 02:52:00,68.0,63.7,28.94,SSE,158,0.0,0.0,86,0.00,,---,0.00,VWS V14.01,2013-08-03 06:52:00,
2013-08-03 02:57:00,68.0,63.7,28.94,SSE,158,0.0,0.0,86,0.00,,---,0.00,VWS V14.01,2013-08-03 06:57:00,
2013-08-03 03:02:00,68.0,63.7,28.94,SSE,158,0.0,0.0,86,0.00,,---,0.00,VWS V14.01,2013-08-03 07:02:00,
2013-08-03 03:07:00,67.8,63.8,28.94,SSE,158,0.0,0.0,87,0.00,,---,0.00,VWS V14.01,2013-08-03 07:07:00,
2013-08-03 03:12:00,67.8,63.8,28.94,SSE,158,0.0,0.0,87,0.00,,---,0.00,VWS V14.01,2013-08-03 07:12:00,
2013-08-03 03:17:00,67.8,63.8,28.94,SSE,158,0.0,0.0,87,0.00,,---,0.00,VWS V14.01,2013-08-03 07:17:00,
2013-08-03 03:22:00,67.6,63.6,28.94,SSE,158,0.0,0.0,87,0.00,,---,0.00,VWS V14.01,2013-08-03 07:22:00,
2013-08-03 03:27:00,67.6,63.6,28.94,SSE,158,0.0,0.0,87,0.00,,---,0.00,VWS V14.01,2013-08-03 07:27:00,
2013-08-03 03:32:00,67.5,63.5,28.94,SSE,158,0.0,0.0,87,0.00,,---,0.00,VWS V14.01,2013-08-03 07:32:00,
2013-08-03 03:37:00,67.5,63.5,28.94,SSE,158,0.0,0.0,87,0.00,,---,0.00,VWS V14.01,2013-08-03 07:37:00,
2013-08-03 03:42:00,67.5,63.5,28.94,SSE,158,0.0,0.0,87,0.00,,---,0.00,VWS V14.01,2013-08-03 07:42:00,
2013-08-03 03:47:00,67.5,63.8,28.94,SSE,158,0.0,0.0,88,0.00,,---,0.00,VWS V14.01,2013-08-03 07:47:00,
2013-08-03 03:52:00,67.5,63.8,28.91,SSE,158,0.0,0.0,88,0.00,,---,0.00,VWS V14.01,2013-08-03 07:52:00,
2013-08-03 03:57:00,67.3,63.6,28.91,SSE,158,0.0,0.0,88,0.00,,---,0.00,VWS V14.01,2013-08-03 07:57:00,
2013-08-03 04:02:00,67.3,63.6,28.91,SSE,158,0.0,0.0,88,0.00,,---,0.00,VWS V14.01,2013-08-03 08:02:00,
2013-08-03 04:07:00,67.3,63.6,28.91,SSE,158,0.0,0.0,88,0.00,,---,0.00,VWS V14.01,2013-08-03 08:07:00,
2013-08-03 04:13:00,67.3,63.6,28.91,SSE,158,0.0,0.0,88,0.00,,---,0.00,VWS V14.01,2013-08-03 08:13:00,
2013-08-03 04:18:00,67.1,63.4,28.91,SSE,158,0.0,0.0,88,0.00,,---,0.00,VWS V14.01,2013-08-03 08:18:00,
2013-08-03 04:23:00,67.1,63.4,28.91,SSE,158,0.0,0.0,88,0.00,,---,0.00,VWS V14.01,2013-08-03 08:23:00,
2013-08-03 04:28:00,67.1,63.4,28.91,SSE,158,0.0,0.0,88,0.00,,---,0.00,VWS V14.01,2013-08-03 08:28:00,
2013-08-03 04:33:00,66.9,63.3,28.91,SSE,158,0.0,0.0,88,0.00,,---,0.00,VWS V14.01,2013-08-03 08:33:00,
2013-08-03 04:38:00,67.1,63.8,28.91,SSE,158,0.0,0.0,89,0.00,,---,0.00,VWS V14.01,2013-08-03 08:38:00,
2013-08-03 04:43:00,67.1,63.8,28.91,SSE,158,0.0,0.0,89,0.00,,---,0.00,VWS V14.01,2013-08-03 08:43:00,
2013-08-03 04:48:00,66.9,63.6,28.91,SSE,158,0.0,0.0,89,0.00,,---,0.00,VWS V14.01,2013-08-03 08:48:00,
2013-08-03 04:53:00,66.9,63.6,28.91,SSE,158,0.0,0.0,89,0.00,,---,0.00,VWS V14.01,2013-08-03 08:53:00,
2013-08-03 04:58:00,66.9,63.6,28.91,SSE,158,0.0,0.0,89,0.00,,---,0.00,VWS V14.01,2013-08-03 08:58:00,
2013-08-03 05:03:00,66.9,63.6,28.91,SSE,158,0.0,0.0,89,0.00,,---,0.00,VWS V14.01,2013-08-03 09:03:00,
2013-08-03 05:08:00,66.7,63.4,28.91,SSE,158,0.0,0.0,89,0.00,,---,0.00,VWS V14.01,2013-08-03 09:08:00,
2013-08-03 05:13:00,66.7,63.4,28.91,SSE,158,0.0,0.0,89,0.00,,---,0.00,VWS V14.01,2013-08-03 09:13:00,
2013-08-03 05:18:00,66.7,63.4,28.91,SSE,158,0.0,0.0,89,0.00,,---,0.00,VWS V14.01,2013-08-03 09:18:00,
2013-08-03 05:23:00,66.7,63.4,28.91,SSE,158,0.0,0.0,89,0.00,,---,0.00,VWS V14.01,2013-08-03 09:23:00,
2013-08-03 05:28:00,66.7,63.4,28.91,SSE,158,0.0,0.0,89,0.00,,---,0.00,VWS V14.01,2013-08-03 09:28:00,
2013-08-03 05:33:00,66.6,63.2,28.91,SSE,158,0.0,0.0,89,0.00,,---,0.00,VWS V14.01,2013-08-03 09:33:00,
2013-08-03 05:38:00,66.6,63.2,28.91,SSE,158,0.0,0.0,89,0.00,,---,0.00,VWS V14.01,2013-08-03 09:38:00,
2013-08-03 05:43:00,66.6,63.2,28.91,SSE,158,0.0,0.0,89,0.00,,---,0.00,VWS V14.01,2013-08-03 09:43:00,
2013-08-03 05:48:00,66.6,63.2,28.91,SSE,158,0.0,0.0,89,0.00,,---,0.00,VWS V14.01,2013-08-03 09:48:00,
2013-08-03 05:53:00,66.6,63.2,28.91,SSE,158,0.0,0.0,89,0.00,,---,0.00,VWS V14.01,2013-08-03 09:53:00,
2013-08-03 05:58:00,66.6,63.5,28.91,SSE,158,0.0,0.0,90,0.00,,---,0.00,VWS V14.01,2013-08-03 09:58:00,
2013-08-03 06:03:00,66.6,63.5,28.91,SSE,158,0.0,0.0,90,0.00,,---,0.00,VWS V14.01,2013-08-03 10:03:00,
2013-08-03 06:08:00,66.4,63.4,28.91,SSE,158,0.0,0.0,90,0.00,,---,0.00,VWS V14.01,2013-08-03 10:08:00,
2013-08-03 06:13:00,66.4,63.4,28.91,SSE,158,0.0,0.0,90,0.00,,---,0.00,VWS V14.01,2013-08-03 10:13:00,
2013-08-03 06:18:00,66.4,63.4,28.91,SSE,158,0.0,0.0,90,0.00,,---,0.00,VWS V14.01,2013-08-03 10:18:00,
2013-08-03 06:23:00,66.4,63.4,28.94,SSE,158,0.0,0.0,90,0.00,,---,0.00,VWS V14.01,2013-08-03 10:23:00,
2013-08-03 06:28:00,66.4,63.4,28.94,SSE,158,0.0,0.0,90,0.00,,---,0.00,VWS V14.01,2013-08-03 10:28:00,
2013-08-03 06:33:00,66.4,63.4,28.94,SSE,158,0.0,0.0,90,0.00,,---,0.00,VWS V14.01,2013-08-03 10:33:00,
2013-08-03 06:38:00,66.2,63.2,28.94,SSE,158,0.0,0.0,90,0.00,,---,0.00,VWS V14.01,2013-08-03 10:38:00,
2013-08-03 06:43:00,66.2,63.2,28.94,SSE,158,0.0,0.0,90,0.00,,---,0.00,VWS V14.01,2013-08-03 10:43:00,
2013-08-03 06:48:00,66.2,63.2,28.94,SSE,158,0.0,0.0,90,0.00,,---,0.00,VWS V14.01,2013-08-03 10:48:00,
2013-08-03 06:53:00,66.2,63.2,28.91,SSE,158,0.0,0.0,90,0.00,,---,0.00,VWS V14.01,2013-08-03 10:53:00,
2013-08-03 06:58:00,66.2,63.2,28.91,SSE,158,0.0,0.0,90,0.00,,---,0.00,VWS V14.01,2013-08-03 10:58:00,
2013-08-03 07:03:00,66.2,63.2,28.91,SSE,158,0.0,0.0,90,0.00,,---,0.00,VWS V14.01,2013-08-03 11:03:00,
2013-08-03 07:08:00,66.2,63.2,28.94,SSE,158,0.0,0.0,90,0.00,,---,0.00,VWS V14.01,2013-08-03 11:08:00,
2013-08-03 07:13:00,66.4,63.7,28.94,SSE,158,0.0,0.0,91,0.00,,---,0.00,VWS V14.01,2013-08-03 11:13:00,
2013-08-03 07:18:00,66.6,63.9,28.94,SSE,158,0.0,0.0,91,0.00,,---,0.00,VWS V14.01,2013-08-03 11:18:00,
2013-08-03 07:23:00,66.7,64.0,28.97,SSE,158,0.0,0.0,91,0.00,,---,0.00,VWS V14.01,2013-08-03 11:23:00,
2013-08-03 07:28:00,66.7,64.0,28.97,SSE,158,0.0,0.0,91,0.00,,---,0.00,VWS V14.01,2013-08-03 11:28:00,
2013-08-03 07:33:00,66.7,64.0,28.97,SSE,158,0.0,0.0,91,0.00,,---,0.00,VWS V14.01,2013-08-03 11:33:00,
2013-08-03 07:39:00,66.9,64.2,28.97,SSE,158,0.0,0.0,91,0.00,,---,0.00,VWS V14.01,2013-08-03 11:39:00,
2013-08-03 07:43:00,66.9,64.2,28.97,SSE,158,0.0,0.0,91,0.00,,---,0.00,VWS V14.01,2013-08-03 11:43:00,
2013-08-03 07:49:00,67.1,64.4,28.97,SSE,158,0.0,0.0,91,0.00,,---,0.00,VWS V14.01,2013-08-03 11:49:00,
2013-08-03 07:54:00,67.1,64.4,28.97,SSE,158,0.0,0.0,91,0.00,,---,0.00,VWS V14.01,2013-08-03 11:54:00,
2013-08-03 07:59:00,67.3,64.6,28.97,SSE,158,0.0,0.0,91,0.00,,---,0.00,VWS V14.01,2013-08-03 11:59:00,
2013-08-03 08:04:00,67.5,64.8,28.97,SSE,158,0.0,0.0,91,0.00,,---,0.00,VWS V14.01,2013-08-03 12:04:00,
2013-08-03 08:09:00,67.6,65.2,28.97,SSE,158,0.0,0.0,92,0.00,,---,0.00,VWS V14.01,2013-08-03 12:09:00,
2013-08-03 08:13:00,67.8,65.4,28.97,SSE,158,0.0,0.0,92,0.00,,---,0.00,VWS V14.01,2013-08-03 12:13:00,
2013-08-03 08:19:00,68.0,65.6,28.97,SSE,158,0.0,0.0,92,0.00,,---,0.00,VWS V14.01,2013-08-03 12:19:00,
2013-08-03 08:24:00,68.2,65.8,28.94,SSE,158,0.0,0.0,92,0.00,,---,0.00,VWS V14.01,2013-08-03 12:24:00,
2013-08-03 08:28:00,68.5,66.1,28.94,SSE,158,0.0,0.0,92,0.00,,---,0.00,VWS V14.01,2013-08-03 12:28:00,
2013-08-03 08:34:00,68.7,66.3,28.94,SSE,158,0.0,0.0,92,0.00,,---,0.00,VWS V14.01,2013-08-03 12:34:00,
2013-08-03 08:39:00,69.1,66.7,28.97,SSE,158,0.0,0.0,92,0.00,,---,0.00,VWS V14.01,2013-08-03 12:39:00,
2013-08-03 08:43:00,69.4,67.3,28.97,SSE,158,0.0,0.0,93,0.00,,---,0.00,VWS V14.01,2013-08-03 12:43:00,
2013-08-03 08:49:00,69.6,67.5,28.97,SSE,158,0.0,0.0,93,0.00,,---,0.00,VWS V14.01,2013-08-03 12:49:00,
2013-08-03 08:54:00,70.0,67.6,28.97,SSE,158,0.0,0.0,92,0.00,,---,0.00,VWS V14.01,2013-08-03 12:54:00,
2013-08-03 08:59:00,70.3,67.9,28.97,SSE,158,0.0,0.0,92,0.00,,---,0.00,VWS V14.01,2013-08-03 12:59:00,
2013-08-03 09:04:00,70.9,68.8,28.97,SSE,158,0.0,0.0,93,0.00,,---,0.00,VWS V14.01,2013-08-03 13:04:00,
2013-08-03 09:09:00,71.4,69.0,28.97,SSE,158,0.0,0.0,92,0.00,,---,0.00,VWS V14.01,2013-08-03 13:09:00,
2013-08-03 09:14:00,72.1,69.7,28.97,SSE,158,0.0,0.0,92,0.00,,---,0.00,VWS V14.01,2013-08-03 13:14:00,
2013-08-03 09:19:00,73.0,70.6,28.97,SSE,158,0.0,0.0,92,0.00,,---,0.00,VWS V14.01,2013-08-03 13:19:00,
2013-08-03 09:24:00,73.9,70.8,28.97,SSE,158,0.0,0.0,90,0.00,,---,0.00,VWS V14.01,2013-08-03 13:24:00,
2013-08-03 09:29:00,74.5,71.0,28.97,SSE,158,0.0,0.0,89,0.00,,---,0.00,VWS V14.01,2013-08-03 13:29:00,
2013-08-03 09:34:00,74.8,71.1,28.97,SSE,158,0.0,0.0,88,0.00,,---,0.00,VWS V14.01,2013-08-03 13:34:00,
2013-08-03 09:39:00,75.2,70.4,29.00,SSE,158,0.0,0.0,85,0.00,,---,0.00,VWS V14.01,2013-08-03 13:39:00,
2013-08-03 09:44:00,75.7,70.6,29.00,West,270,1.3,1.3,84,0.00,,---,0.00,VWS V14.01,2013-08-03 13:44:00,
2013-08-03 09:49:00,76.3,70.0,29.00,West,270,0.0,0.0,81,0.00,,---,0.00,VWS V14.01,2013-08-03 13:49:00,
2013-08-03 09:54:00,76.6,69.6,28.97,West,270,0.0,0.0,79,0.00,,---,0.00,VWS V14.01,2013-08-03 13:54:00,
2013-08-03 09:59:00,77.4,69.6,28.97,SE,135,0.0,0.0,77,0.00,,---,0.00,VWS V14.01,2013-08-03 13:59:00,
2013-08-03 10:04:00,77.9,68.9,28.97,West,270,1.3,1.3,74,0.00,,---,0.00,VWS V14.01,2013-08-03 14:04:00,
2013-08-03 10:09:00,78.8,68.2,29.00,SSW,202,0.0,0.0,70,0.00,,---,0.00,VWS V14.01,2013-08-03 14:09:00,
2013-08-03 10:14:00,79.9,68.8,29.00,SW,225,0.0,0.0,69,0.00,,---,0.00,VWS V14.01,2013-08-03 14:14:00,
2013-08-03 10:19:00,80.8,68.4,29.00,SW,225,0.0,0.0,66,0.00,,---,0.00,VWS V14.01,2013-08-03 14:19:00,
2013-08-03 10:24:00,81.0,67.2,29.00,SE,135,0.0,1.3,63,0.00,,---,0.00,VWS V14.01,2013-08-03 14:24:00,
2013-08-03 10:29:00,81.1,65.9,29.00,West,270,2.0,2.0,60,0.00,,---,0.00,VWS V14.01,2013-08-03 14:29:00,
2013-08-03 10:34:00,81.1,66.9,29.00,NW,315,0.0,0.0,62,0.00,,---,0.00,VWS V14.01,2013-08-03 14:34:00,
2013-08-03 10:39:00,81.1,65.5,29.00,NW,315,0.0,1.6,59,0.00,,---,0.00,VWS V14.01,2013-08-03 14:39:00,
2013-08-03 10:44:00,81.3,64.7,29.00,WNW,292,1.1,1.6,57,0.00,,---,0.00,VWS V14.01,2013-08-03 14:44:00,
2013-08-03 10:49:00,81.5,64.8,29.00,WNW,292,0.9,1.3,57,0.00,,---,0.00,VWS V14.01,2013-08-03 14:49:00,
2013-08-03 10:54:00,81.7,64.5,29.00,North,0,0.0,1.1,56,0.00,,---,0.00,VWS V14.01,2013-08-03 14:54:00,
2013-08-03 10:59:00,81.9,65.2,29.00,SE,135,0.0,0.0,57,0.00,,---,0.00,VWS V14.01,2013-08-03 14:59:00,
2013-08-03 11:04:00,82.0,63.8,29.00,SE,135,2.0,2.0,54,0.00,,---,0.00,VWS V14.01,2013-08-03 15:04:00,
2013-08-03 11:09:00,82.2,63.4,29.00,West,270,1.6,1.6,53,0.00,,---,0.00,VWS V14.01,2013-08-03 15:09:00,
2013-08-03 11:15:00,82.4,64.1,29.00,West,270,2.0,2.0,54,0.00,,---,0.00,VWS V14.01,2013-08-03 15:15:00,
2013-08-03 11:20:00,82.6,60.9,29.00,NW,315,2.0,2.5,48,0.00,,---,0.00,VWS V14.01,2013-08-03 15:20:00,
2013-08-03 11:25:00,82.8,62.2,29.00,SSE,158,0.0,0.0,50,0.00,,---,0.00,VWS V14.01,2013-08-03 15:25:00,
2013-08-03 11:30:00,82.9,62.4,29.00,SW,225,0.0,2.2,50,0.00,,---,0.00,VWS V14.01,2013-08-03 15:30:00,
2013-08-03 11:35:00,83.3,63.3,29.00,SW,225,1.6,1.6,51,0.00,,---,0.00,VWS V14.01,2013-08-03 15:35:00,
2013-08-03 11:40:00,83.5,62.9,29.00,NNW,338,1.3,2.0,50,0.00,,---,0.00,VWS V14.01,2013-08-03 15:40:00,
2013-08-03 11:45:00,83.5,61.8,29.00,WNW,292,3.6,4.0,48,0.00,,---,0.00,VWS V14.01,2013-08-03 15:45:00,
2013-08-03 11:50:00,83.5,60.5,29.00,West,270,1.1,1.1,46,0.00,,---,0.00,VWS V14.01,2013-08-03 15:50:00,
2013-08-03 11:54:00,83.5,59.3,29.00,West,270,2.5,2.5,44,0.00,,---,0.00,VWS V14.01,2013-08-03 15:54:00,
2013-08-03 12:00:00,83.7,60.1,29.00,WNW,292,4.0,4.0,45,0.00,,---,0.00,VWS V14.01,2013-08-03 16:00:00,
2013-08-03 12:05:00,84.0,61.0,29.00,North,0,1.3,2.7,46,0.00,,---,0.00,VWS V14.01,2013-08-03 16:05:00,
2013-08-03 12:10:00,84.4,62.0,28.97,SE,135,4.7,4.7,47,0.00,,---,0.00,VWS V14.01,2013-08-03 16:10:00,
2013-08-03 12:15:00,84.2,58.6,28.97,NNE,22,4.9,4.9,42,0.00,,---,0.00,VWS V14.01,2013-08-03 16:15:00,
2013-08-03 12:20:00,84.6,60.9,28.97,NE,45,2.7,3.1,45,0.00,,---,0.00,VWS V14.01,2013-08-03 16:20:00,
2013-08-03 12:25:00,84.7,61.1,28.97,WNW,292,1.3,2.5,45,0.00,,---,0.00,VWS V14.01,2013-08-03 16:25:00,
2013-08-03 12:30:00,84.6,58.3,28.97,West,270,4.0,4.0,41,0.00,,---,0.00,VWS V14.01,2013-08-03 16:30:00,
2013-08-03 12:35:00,85.1,60.1,28.97,NNW,338,1.1,1.6,43,0.00,,---,0.00,VWS V14.01,2013-08-03 16:35:00,
2013-08-03 12:40:00,85.1,59.5,28.97,West,270,0.0,3.6,42,0.00,,---,0.00,VWS V14.01,2013-08-03 16:40:00,
2013-08-03 12:45:00,84.6,58.3,28.97,NW,315,1.6,3.8,41,0.00,,---,0.00,VWS V14.01,2013-08-03 16:45:00,
2013-08-03 12:50:00,84.9,58.6,28.97,SW,225,2.5,6.0,41,0.00,,---,0.00,VWS V14.01,2013-08-03 16:50:00,
2013-08-03 12:55:00,85.5,59.1,28.97,WNW,292,4.0,4.0,41,0.00,,---,0.00,VWS V14.01,2013-08-03 16:55:00,
2013-08-03 13:00:00,85.5,59.8,28.97,SSW,202,3.4,4.3,42,0.00,,---,0.00,VWS V14.01,2013-08-03 17:00:00,
2013-08-03 13:05:00,85.6,59.3,28.97,NNE,22,0.9,2.9,41,0.00,,---,0.00,VWS V14.01,2013-08-03 17:05:00,
2013-08-03 13:10:00,85.8,60.1,29.00,WNW,292,1.3,3.8,42,0.00,,---,0.00,VWS V14.01,2013-08-03 17:10:00,
2013-08-03 13:15:00,85.8,59.4,29.00,WSW,248,4.7,4.7,41,0.00,,---,0.00,VWS V14.01,2013-08-03 17:15:00,
2013-08-03 13:20:00,86.0,59.6,29.00,WNW,292,2.0,2.9,41,0.00,,---,0.00,VWS V14.01,2013-08-03 17:20:00,
2013-08-03 13:25:00,86.0,58.9,29.00,West,270,3.6,3.8,40,0.00,,---,0.00,VWS V14.01,2013-08-03 17:25:00,
2013-08-03 13:30:00,86.4,59.2,29.00,NW,315,1.3,2.9,40,0.00,,---,0.00,VWS V14.01,2013-08-03 17:30:00,
2013-08-03 13:35:00,86.5,59.4,29.00,WSW,248,4.3,6.7,40,0.00,,---,0.00,VWS V14.01,2013-08-03 17:35:00,
2013-08-03 13:40:00,86.7,59.5,29.00,WNW,292,2.2,2.2,40,0.00,,---,0.00,VWS V14.01,2013-08-03 17:40:00,
2013-08-03 13:45:00,87.1,60.5,29.00,SSE,158,0.9,0.9,41,0.00,,---,0.00,VWS V14.01,2013-08-03 17:45:00,
2013-08-03 13:50:00,86.9,59.0,29.00,West,270,2.0,2.0,39,0.00,,---,0.00,VWS V14.01,2013-08-03 17:50:00,
2013-08-03 13:55:00,86.9,59.7,29.00,West,270,3.4,3.4,40,0.00,,---,0.00,VWS V14.01,2013-08-03 17:55:00,
2013-08-03 14:00:00,86.7,58.8,29.00,WNW,292,2.9,3.8,39,0.00,,---,0.00,VWS V14.01,2013-08-03 18:00:00,
2013-08-03 14:05:00,86.7,58.8,29.00,SE,135,0.9,3.8,39,0.00,,---,0.00,VWS V14.01,2013-08-03 18:05:00,
2013-08-03 14:10:00,86.9,59.0,29.00,NW,315,1.6,1.6,39,0.00,,---,0.00,VWS V14.01,2013-08-03 18:10:00,
2013-08-03 14:14:00,87.1,59.2,29.00,NW,315,3.4,3.8,39,0.00,,---,0.00,VWS V14.01,2013-08-03 18:14:00,
2013-08-03 14:20:00,87.3,59.3,29.00,SW,225,2.9,3.1,39,0.00,,---,0.00,VWS V14.01,2013-08-03 18:20:00,
2013-08-03 14:25:00,88.5,61.1,28.97,West,270,4.0,4.0,40,0.00,,---,0.00,VWS V14.01,2013-08-03 18:25:00,
2013-08-03 14:30:00,88.7,59.1,28.97,NW,315,2.5,2.9,37,0.00,,---,0.00,VWS V14.01,2013-08-03 18:30:00,
2013-08-03 14:35:00,89.8,59.3,28.97,West,270,2.9,3.4,36,0.00,,---,0.00,VWS V14.01,2013-08-03 18:35:00,
2013-08-03 14:40:00,89.8,59.3,28.97,WNW,292,2.5,4.9,36,0.00,,---,0.00,VWS V14.01,2013-08-03 18:40:00,
2013-08-03 14:45:00,90.1,57.2,28.97,NNE,22,3.1,3.1,33,0.00,,---,0.00,VWS V14.01,2013-08-03 18:45:00,
2013-08-03 14:50:00,90.1,58.0,28.97,WNW,292,4.7,4.7,34,0.00,,---,0.00,VWS V14.01,2013-08-03 18:50:00,
2013-08-03 14:55:00,89.2,57.2,28.97,WNW,292,1.6,2.9,34,0.00,,---,0.00,VWS V14.01,2013-08-03 18:55:00,
2013-08-03 15:00:00,89.2,58.8,28.97,SW,225,1.6,2.9,36,0.00,,---,0.00,VWS V14.01,2013-08-03 19:00:00,
2013-08-03 15:05:00,88.3,58.0,28.97,NNE,22,0.9,1.6,36,0.00,,---,0.00,VWS V14.01,2013-08-03 19:05:00,
2013-08-03 15:10:00,87.6,57.4,28.97,WSW,248,0.0,1.3,36,0.00,,---,0.00,VWS V14.01,2013-08-03 19:10:00,
2013-08-03 15:15:00,87.3,57.8,28.97,WNW,292,2.2,2.2,37,0.00,,---,0.00,VWS V14.01,2013-08-03 19:15:00,
2013-08-03 15:20:00,87.4,58.7,28.97,SE,135,1.6,1.6,38,0.00,,---,0.00,VWS V14.01,2013-08-03 19:20:00,
2013-08-03 15:25:00,89.4,60.5,28.97,West,270,1.6,2.5,38,0.00,,---,0.00,VWS V14.01,2013-08-03 19:25:00,
2013-08-03 15:30:00,89.8,58.5,28.97,NW,315,2.7,2.7,35,0.00,,---,0.00,VWS V14.01,2013-08-03 19:30:00,
2013-08-03 15:35:00,90.3,59.0,28.97,WNW,292,2.5,4.3,35,0.00,,---,0.00,VWS V14.01,2013-08-03 19:35:00,
2013-08-03 15:40:00,89.1,57.1,28.94,NW,315,2.5,2.9,34,0.00,,---,0.00,VWS V14.01,2013-08-03 19:40:00,
2013-08-03 15:45:00,88.7,59.1,28.94,WNW,292,2.9,2.9,37,0.00,,---,0.00,VWS V14.01,2013-08-03 19:45:00,
2013-08-03 15:50:00,88.5,59.0,28.94,WNW,292,2.0,2.2,37,0.00,,---,0.00,VWS V14.01,2013-08-03 19:50:00,
2013-08-03 15:55:00,88.7,58.3,28.94,NW,315,3.1,3.1,36,0.00,,---,0.00,VWS V14.01,2013-08-03 19:55:00,
2013-08-03 16:00:00,88.7,58.3,28.94,West,270,4.0,4.0,36,0.00,,---,0.00,VWS V14.01,2013-08-03 20:00:00,
2013-08-03 16:05:00,88.7,57.6,28.94,WSW,248,6.7,6.7,35,0.00,,---,0.00,VWS V14.01,2013-08-03 20:05:00,
2013-08-03 16:10:00,88.2,58.6,28.97,NNE,22,2.2,3.8,37,0.00,,---,0.00,VWS V14.01,2013-08-03 20:10:00,
2013-08-03 16:15:00,88.3,58.8,28.97,WSW,248,3.1,3.4,37,0.00,,---,0.00,VWS V14.01,2013-08-03 20:15:00,
2013-08-03 16:21:00,88.0,59.2,28.97,NNE,22,0.0,1.1,38,0.00,,---,0.00,VWS V14.01,2013-08-03 20:21:00,
2013-08-03 16:26:00,86.9,58.3,28.97,ESE,112,0.9,2.7,38,0.00,,---,0.00,VWS V14.01,2013-08-03 20:26:00,
2013-08-03 16:32:00,86.4,58.5,28.97,SW,225,2.5,2.7,39,0.00,,---,0.00,VWS V14.01,2013-08-03 20:32:00,
2013-08-03 16:37:00,86.4,59.2,28.97,WNW,292,3.1,3.1,40,0.00,,---,0.00,VWS V14.01,2013-08-03 20:37:00,
2013-08-03 16:42:00,85.6,59.3,28.97,North,0,0.0,0.9,41,0.00,,---,0.00,VWS V14.01,2013-08-03 20:42:00,
2013-08-03 16:47:00,85.6,59.9,28.97,ENE,68,1.1,1.3,42,0.00,,---,0.00,VWS V14.01,2013-08-03 20:47:00,
2013-08-03 16:52:00,85.6,59.3,28.97,West,270,0.0,0.0,41,0.00,,---,0.00,VWS V14.01,2013-08-03 20:52:00,
2013-08-03 16:57:00,85.6,59.3,28.97,WSW,248,3.6,3.6,41,0.00,,---,0.00,VWS V14.01,2013-08-03 20:57:00,
2013-08-03 17:02:00,85.3,59.6,28.97,West,270,0.0,0.0,42,0.00,,---,0.00,VWS V14.01,2013-08-03 21:02:00,
2013-08-03 17:07:00,84.9,59.3,28.97,South,180,0.0,1.6,42,0.00,,---,0.00,VWS V14.01,2013-08-03 21:07:00,
2013-08-03 17:12:00,84.7,59.1,28.97,NW,315,3.1,3.1,42,0.00,,---,0.00,VWS V14.01,2013-08-03 21:12:00,
2013-08-03 17:17:00,84.6,60.3,28.97,ENE,68,0.0,0.0,44,0.00,,---,0.00,VWS V14.01,2013-08-03 21:17:00,
2013-08-03 17:22:00,84.4,60.1,28.97,NW,315,0.9,1.1,44,0.00,,---,0.00,VWS V14.01,2013-08-03 21:22:00,
2013-08-03 17:27:00,84.2,60.0,28.97,NW,315,0.0,1.1,44,0.00,,---,0.00,VWS V14.01,2013-08-03 21:27:00,
2013-08-03 17:32:00,84.2,60.6,28.97,NE,45,1.3,3.1,45,0.00,,---,0.00,VWS V14.01,2013-08-03 21:32:00,
2013-08-03 17:37:00,84.0,61.0,28.94,NW,315,1.6,3.1,46,0.00,,---,0.00,VWS V14.01,2013-08-03 21:37:00,
2013-08-03 17:42:00,83.8,61.5,28.94,NE,45,2.7,2.7,47,0.00,,---,0.00,VWS V14.01,2013-08-03 21:42:00,
2013-08-03 17:47:00,83.7,61.9,28.94,ESE,112,1.3,3.4,48,0.00,,---,0.00,VWS V14.01,2013-08-03 21:47:00,
2013-08-03 17:52:00,83.5,61.8,28.94,SW,225,1.3,1.3,48,0.00,,---,0.00,VWS V14.01,2013-08-03 21:52:00,
2013-08-03 17:57:00,83.3,61.0,28.97,WNW,292,0.9,0.9,47,0.00,,---,0.00,VWS V14.01,2013-08-03 21:57:00,
2013-08-03 18:02:00,83.1,60.8,28.97,NNW,338,0.0,0.0,47,0.00,,---,0.00,VWS V14.01,2013-08-03 22:02:00,
2013-08-03 18:07:00,82.8,61.1,28.97,NNE,22,2.9,2.9,48,0.00,,---,0.00,VWS V14.01,2013-08-03 22:07:00,
2013-08-03 18:12:00,82.6,60.9,28.97,West,270,1.6,1.6,48,0.00,,---,0.00,VWS V14.01,2013-08-03 22:12:00,
2013-08-03 18:17:00,82.6,61.5,28.97,West,270,0.0,0.0,49,0.00,,---,0.00,VWS V14.01,2013-08-03 22:17:00,
2013-08-03 18:22:00,82.2,61.8,28.94,NNE,22,0.0,0.0,50,0.00,,---,0.00,VWS V14.01,2013-08-03 22:22:00,
2013-08-03 18:27:00,82.0,62.1,28.94,WSW,248,2.9,2.9,51,0.00,,---,0.00,VWS V14.01,2013-08-03 22:27:00,
2013-08-03 18:33:00,81.9,62.5,28.94,NE,45,0.0,0.0,52,0.00,,---,0.00,VWS V14.01,2013-08-03 22:33:00,
2013-08-03 18:38:00,81.9,62.5,28.97,NW,315,2.2,2.7,52,0.00,,---,0.00,VWS V14.01,2013-08-03 22:38:00,
2013-08-03 18:43:00,82.0,63.2,28.97,West,270,2.5,2.5,53,0.00,,---,0.00,VWS V14.01,2013-08-03 22:43:00,
2013-08-03 18:48:00,82.2,62.9,28.97,West,270,0.0,0.9,52,0.00,,---,0.00,VWS V14.01,2013-08-03 22:48:00,
2013-08-03 18:53:00,82.0,63.2,28.97,West,270,0.0,1.1,53,0.00,,---,0.00,VWS V14.01,2013-08-03 22:53:00,
2013-08-03 18:58:00,82.0,63.2,28.97,WNW,292,0.0,3.4,53,0.00,,---,0.00,VWS V14.01,2013-08-03 22:58:00,
2013-08-03 19:04:00,82.2,63.4,28.97,WNW,292,2.0,2.7,53,0.00,,---,0.00,VWS V14.01,2013-08-03 23:04:00,
2013-08-03 19:09:00,82.0,63.2,28.97,NNE,22,1.3,1.3,53,0.00,,---,0.00,VWS V14.01,2013-08-03 23:09:00,
2013-08-03 19:14:00,81.9,62.5,28.97,SW,225,1.3,1.3,52,0.00,,---,0.00,VWS V14.01,2013-08-03 23:14:00,
2013-08-03 19:19:00,81.7,62.9,28.97,West,270,0.9,0.9,53,0.00,,---,0.00,VWS V14.01,2013-08-03 23:19:00,
2013-08-03 19:24:00,81.3,62.6,28.94,NE,45,1.3,1.3,53,0.00,,---,0.00,VWS V14.01,2013-08-03 23:24:00,
2013-08-03 19:29:00,81.0,62.2,28.94,West,270,1.3,2.7,53,0.00,,---,0.00,VWS V14.01,2013-08-03 23:29:00,
2013-08-03 19:34:00,80.8,62.6,28.94,WSW,248,0.0,0.0,54,0.00,,---,0.00,VWS V14.01,2013-08-03 23:34:00,
2013-08-03 19:39:00,80.6,62.4,28.97,West,270,0.0,0.0,54,0.00,,---,0.00,VWS V14.01,2013-08-03 23:39:00,
2013-08-03 19:44:00,80.2,63.1,28.97,West,270,0.0,0.0,56,0.00,,---,0.00,VWS V14.01,2013-08-03 23:44:00,
2013-08-03 19:49:00,79.9,63.3,28.97,NNW,338,0.0,0.0,57,0.00,,---,0.00,VWS V14.01,2013-08-03 23:49:00,
2013-08-03 19:54:00,79.7,63.6,28.97,West,270,0.0,0.0,58,0.00,,---,0.00,VWS V14.01,2013-08-03 23:54:00,
2013-08-03 19:59:00,79.5,64.0,28.97,West,270,0.0,0.0,59,0.00,,---,0.00,VWS V14.01,2013-08-03 23:59:00,
2013-08-03 20:04:00,79.3,63.8,28.97,West,270,0.0,0.0,59,0.00,,---,0.00,VWS V14.01,2013-08-04 00:04:00,
2013-08-03 20:09:00,79.2,64.1,28.97,West,270,0.0,0.0,60,0.00,,---,0.00,VWS V14.01,2013-08-04 00:09:00,
2013-08-03 20:14:00,79.0,63.9,28.97,West,270,0.0,0.0,60,0.00,,---,0.00,VWS V14.01,2013-08-04 00:14:00,
2013-08-03 20:19:00,78.6,64.5,28.97,West,270,0.0,0.0,62,0.00,,---,0.00,VWS V14.01,2013-08-04 00:19:00,
2013-08-03 20:24:00,78.4,64.3,28.97,West,270,0.0,0.0,62,0.00,,---,0.00,VWS V14.01,2013-08-04 00:24:00,
2013-08-03 20:29:00,78.3,64.2,28.97,West,270,0.0,0.0,62,0.00,,---,0.00,VWS V14.01,2013-08-04 00:29:00,
2013-08-03 20:34:00,78.1,64.5,28.97,West,270,0.0,0.0,63,0.00,,---,0.00,VWS V14.01,2013-08-04 00:34:00,
2013-08-03 20:39:00,77.7,64.6,28.97,West,270,0.0,0.0,64,0.00,,---,0.00,VWS V14.01,2013-08-04 00:39:00,
2013-08-03 20:44:00,77.5,64.4,28.97,West,270,0.0,0.0,64,0.00,,---,0.00,VWS V14.01,2013-08-04 00:44:00,
2013-08-03 20:49:00,77.4,64.7,28.97,West,270,0.0,0.0,65,0.00,,---,0.00,VWS V14.01,2013-08-04 00:49:00,
2013-08-03 20:54:00,77.2,64.5,28.97,West,270,0.0,0.0,65,0.00,,---,0.00,VWS V14.01,2013-08-04 00:54:00,
2013-08-03 20:59:00,77.0,64.8,28.97,West,270,0.0,0.0,66,0.00,,---,0.00,VWS V14.01,2013-08-04 00:59:00,
2013-08-03 21:04:00,77.0,64.8,28.97,West,270,0.0,0.0,66,0.00,,---,0.00,VWS V14.01,2013-08-04 01:04:00,
2013-08-03 21:09:00,76.8,65.0,28.97,West,270,0.0,0.0,67,0.00,,---,0.00,VWS V14.01,2013-08-04 01:09:00,
2013-08-03 21:14:00,76.6,64.9,28.97,West,270,0.0,0.0,67,0.00,,---,0.00,VWS V14.01,2013-08-04 01:14:00,
2013-08-03 21:19:00,76.5,65.1,28.97,West,270,0.0,0.0,68,0.00,,---,0.00,VWS V14.01,2013-08-04 01:19:00,
2013-08-03 21:24:00,76.5,65.1,28.97,West,270,0.0,0.0,68,0.00,,---,0.00,VWS V14.01,2013-08-04 01:24:00,
2013-08-03 21:29:00,76.3,65.4,28.97,West,270,0.0,0.0,69,0.00,,---,0.00,VWS V14.01,2013-08-04 01:29:00,
2013-08-03 21:34:00,76.1,65.2,28.97,West,270,0.0,0.0,69,0.00,,---,0.00,VWS V14.01,2013-08-04 01:34:00,
2013-08-03 21:40:00,76.1,65.6,28.97,West,270,0.0,0.0,70,0.00,,---,0.00,VWS V14.01,2013-08-04 01:40:00,
2013-08-03 21:45:00,75.9,65.4,28.97,West,270,0.0,0.0,70,0.00,,---,0.00,VWS V14.01,2013-08-04 01:45:00,
2013-08-03 21:50:00,75.7,65.3,28.97,West,270,0.0,0.0,70,0.00,,---,0.00,VWS V14.01,2013-08-04 01:50:00,
2013-08-03 21:55:00,75.7,65.7,28.97,West,270,0.0,0.0,71,0.00,,---,0.00,VWS V14.01,2013-08-04 01:55:00,
2013-08-03 22:00:00,75.6,65.5,28.97,West,270,0.0,0.0,71,0.00,,---,0.00,VWS V14.01,2013-08-04 02:00:00,
2013-08-03 22:06:00,75.6,65.9,28.97,West,270,0.0,0.0,72,0.00,,---,0.00,VWS V14.01,2013-08-04 02:06:00,
2013-08-03 22:11:00,75.4,66.1,29.00,West,270,0.0,0.0,73,0.00,,---,0.00,VWS V14.01,2013-08-04 02:11:00,
2013-08-03 22:16:00,75.4,66.1,29.00,West,270,0.0,0.0,73,0.00,,---,0.00,VWS V14.01,2013-08-04 02:16:00,
2013-08-03 22:20:00,75.4,66.1,29.00,West,270,0.0,0.0,73,0.00,,---,0.00,VWS V14.01,2013-08-04 02:20:00,
2013-08-03 22:26:00,75.2,66.3,28.97,West,270,0.0,0.0,74,0.00,,---,0.00,VWS V14.01,2013-08-04 02:26:00,
2013-08-03 22:31:00,75.0,66.6,28.97,West,270,0.0,0.0,75,0.00,,---,0.00,VWS V14.01,2013-08-04 02:31:00,
2013-08-03 22:35:00,75.0,66.6,28.97,West,270,0.0,0.0,75,0.00,,---,0.00,VWS V14.01,2013-08-04 02:35:00,
2013-08-03 22:40:00,74.8,66.4,28.97,West,270,0.0,0.0,75,0.00,,---,0.00,VWS V14.01,2013-08-04 02:40:00,
2013-08-03 22:45:00,74.8,66.8,28.97,West,270,0.0,0.0,76,0.00,,---,0.00,VWS V14.01,2013-08-04 02:45:00,
2013-08-03 22:50:00,74.7,66.6,28.97,West,270,0.0,0.0,76,0.00,,---,0.00,VWS V14.01,2013-08-04 02:50:00,
2013-08-03 22:55:00,74.5,66.4,28.97,West,270,0.0,0.0,76,0.00,,---,0.00,VWS V14.01,2013-08-04 02:55:00,
2013-08-03 23:00:00,74.5,66.8,28.97,West,270,0.0,0.0,77,0.00,,---,0.00,VWS V14.01,2013-08-04 03:00:00,
2013-08-03 23:05:00,74.3,66.6,28.97,West,270,0.0,0.0,77,0.00,,---,0.00,VWS V14.01,2013-08-04 03:05:00,
2013-08-03 23:10:00,74.3,67.0,28.97,West,270,0.0,0.0,78,0.00,,---,0.00,VWS V14.01,2013-08-04 03:10:00,
2013-08-03 23:15:00,74.1,66.8,28.97,West,270,0.0,0.0,78,0.00,,---,0.00,VWS V14.01,2013-08-04 03:15:00,
2013-08-03 23:20:00,74.1,66.8,28.97,West,270,0.0,0.0,78,0.00,,---,0.00,VWS V14.01,2013-08-04 03:20:00,
2013-08-03 23:25:00,73.9,66.7,28.97,West,270,0.0,0.0,78,0.00,,---,0.00,VWS V14.01,2013-08-04 03:25:00,
2013-08-03 23:30:00,73.9,66.7,28.97,West,270,0.0,0.0,78,0.00,,---,0.00,VWS V14.01,2013-08-04 03:30:00,
2013-08-03 23:35:00,73.9,67.0,28.97,West,270,0.0,0.0,79,0.00,,---,0.00,VWS V14.01,2013-08-04 03:35:00,
2013-08-03 23:40:00,73.8,66.8,28.97,West,270,0.0,0.0,79,0.00,,---,0.00,VWS V14.01,2013-08-04 03:40:00,
2013-08-03 23:45:00,73.8,66.8,28.97,West,270,0.0,0.0,79,0.00,,---,0.00,VWS V14.01,2013-08-04 03:45:00,
2013-08-03 23:50:00,73.8,67.2,28.97,West,270,0.0,0.0,80,0.00,,---,0.00,VWS V14.01,2013-08-04 03:50:00,
2013-08-03 23:55:00,73.8,67.2,28.97,West,270,0.0,0.0,80,0.00,,---,0.00,VWS V14.01,2013-08-04 03:55:00,